Regional Weather Roundup
Issued by NWS Kansas City/Pleasant Hill, MO

Home | Current Version | Previous Version | Graphics & Text | Print | Product List | Glossary Off
Versions: 1 2 3 4 5 6 7 8 9 10 11 12 13 14 15 16 17 18 19 20 21 22 23 24 25 26 27 28 29 30 31 32 33 34 35 36 37 38 39 40 41 42 43 44 45 46 47 48 49 50

801
ASUS43 KEAX 271510
RWREAX

WEATHER ROUNDUP FOR EASTERN KANSAS AND NORTHWEST MISSOURI
NATIONAL WEATHER SERVICE KANSAS CITY/PLEASANT HILL MO
1000 AM CDT SAT AUG 27 2016

KSZ040-057-103>105-MOZ028-029-037-043-271600-
...KANSAS CITY METROPOLITAN AREA...

CITY           SKY/WX    TMP DP  RH WIND       PRES   REMARKS
K.C. INTL      MOSUNNY   74  67  78 S8        30.04R
K.C. DOWNTOWN  SUNNY     79  69  71 SW5       30.03R
LEES SUMMIT    SUNNY     77  71  82 S8        30.04F
OLATHE - IXD   SUNNY     77  70  79 S8        30.05S
OLATHE - OJC   SUNNY     77  72  84 S8        30.05R
LAWRENCE       SUNNY     76  71  85 E6        30.03S

$$

MOZ001>008-011>017-020>025-030>033-038>040-044>046-053-054-271600-
...NORTHERN AND CENTRAL MISSOURI...

CITY           SKY/WX    TMP DP  RH WIND       PRES   REMARKS
ST. JOSEPH     CLOUDY    73  69  87 CALM      30.04R
MOSBY          SUNNY     75  66  73 SE3       30.04R
WHITEMAN AFB   PTSUNNY   80  78  94 SW8       30.05F
CLINTON        SUNNY     77  73  88 SW6       30.07F
SEDALIA        PTSUNNY   80  72  76 W6        30.08S
WARSAW         NOT AVBL
CHILLICOTHE    NOT AVBL
KIRKSVILLE     PTSUNNY   75  69  81 SW8       30.08R

$$

MOZ041-047>049-056>058-063>065-088>090-097-271600-
...EASTERN AND SOUTHERN MISSOURI...

CITY           SKY/WX    TMP DP  RH WIND       PRES   REMARKS
ST. LOUIS INTL PTSUNNY   83  68  60 SW10      30.08F
SPIRIT OF STL  PTSUNNY   82  72  71 SW8       30.06F
COLUMBIA       MOSUNNY   79  73  82 S7        30.08R
JEFFERSON CITY PTSUNNY   77  73  87 S6        30.07S
ROLLA          CLOUDY    77  72  84 SW7       30.09S
OSAGE BEACH    CLOUDY    78  73  84 S7        30.09S
SPRINGFIELD    CLOUDY    79  71  76 SW6       30.10S
BRANSON        MOSUNNY   77  72  83 CALM      30.12R
JOPLIN         SUNNY     79  70  74 S7        30.09S
WEST PLAINS    MOSUNNY   80  71  74 W3        30.13S

$$

IAZ060-094-KSZ022-034>040-054-083-096-NEZ052-066-093-271600-
...KANSAS...SOUTHEAST NEBRASKA AND IOWA...

CITY           SKY/WX    TMP DP  RH WIND       PRES   REMARKS
TOPEKA         SUNNY     74  68  81 S3        30.03R
MANHATTAN      SUNNY     74  68  81 S5        30.04R
EMPORIA        PTSUNNY   76  70  82 S12       30.04S
CHANUTE        SUNNY     79  72  79 S9        30.05F
WICHITA        MOSUNNY   77  69  76 E8        30.03S
OMAHA          CLOUDY    72  67  84 CALM      30.02S
LINCOLN        CLOUDY    73  65  75 NW5       30.04S
FALLS CITY     SUNNY     74  68  81 W5        30.02S
LAMONI         CLOUDY    70  69  97 E5        30.05S
DES MOINES     CLOUDY    67  65  93 S3        30.04S FOG

$$





USA.gov is the U.S. government's official web portal to all federal, state and local government web resources and services.